Location: Melbourne
(37.8170°S, 144.9670°E)
Time: 10:16:03
(UTC+10:00)

Aureole 2 Rocket - Visible Passes

Search period start: 27 April 2015 00:00
Search period end: 07 May 2015 00:00
Orbit: 342 x 689 km, 73.9° (Epoch: 25 April)

Date Brightness Start Highest point End Pass type
(mag) Time Alt. Az. Time Alt. Az. Time Alt. Az.
27 Apr 3.9 18:48:11 10° NNW 18:52:55 54° WSW 18:57:23 10° S visible
28 Apr 3.8 18:32:53 10° NNW 18:37:37 59° WSW 18:42:05 10° S visible
29 Apr 3.7 18:17:32 10° NNW 18:22:17 63° WSW 18:26:44 10° SSE visible
30 Apr 3.6 18:02:10 10° NNW 18:06:55 68° WSW 18:11:21 10° SSE visible
06 May 6.1 18:10:07 10° WSW 18:10:56 10° WSW 18:11:29 10° SW visible
